User: anonymous   Login
Location: Bu�n Treun
(12.1333°N, 108.3167°E)
Time: 16:32:09
(UTC+00:00)
Language:

SPROUT - Orbit

View from above orbital plane
View from above orbital plane
View from above satellite
View from above satellite

Ground track
Ground track

The orbit data is extracted from the following two-line orbital elements,

1 39770U 14029E   21268.23230066  .00001301  00000-0  14550-3 0  9996
2 39770  97.9234  19.4738 0007752 235.0738 124.9815 14.88661175398189
Epoch (UTC): 25 September 2021 05:34:30
Eccentricity: 0.0007752
inclination: 97.9234°
perigee height: 597 km
apogee height: 607 km
right ascension of ascending node: 19.4738°
argument of perigee: 235.0738°
revolutions per day: 14.88661175
mean anomaly at epoch: 124.9815°
orbit number at epoch: 39818

The dashed part of the orbit path shows where the satellite is in the earth's shadow,  

DLR